When you browse on this site, cookies collect data to enhance your experience and personalize the content and advertising you see.
Visit our Privacy Policy to learn more. By continuing to use the site, you agree to this use of cookies and data.
  • In France
  • List of Countries
  • For 7 days
  • Water Temperature
  • Satellite Maps
  • Weather Map
  • Weather Widgets
  • user-avatar
    Login

    Hourly Weather Stepanakert

    Today, 12 December, Wednesday

    Time Temperature Precipitation Wind Pressure Humidity
    00:00 +8°C° 0 mm 3 mps 690 mmHg 49%
    01:00 +7°C° 0 mm 3 mps 690 mmHg 50%
    02:00 +7°C° 0 mm 3 mps 690 mmHg 51%
    03:00 +8°C° 0 mm 3 mps 690 mmHg 52%
    04:00 +7°C° 0 mm 3 mps 690 mmHg 53%
    05:00 +7°C° 0 mm 3 mps 690 mmHg 54%
    06:00 +7°C° 0 mm 2 mps 691 mmHg 55%
    07:00 +8°C° 0 mm 2 mps 690 mmHg 53%
    08:00 +9°C° 0 mm 2 mps 690 mmHg 52%
    09:00 +10°C° 0 mm 2 mps 690 mmHg 50%
    10:00 +12°C° 0 mm 2 mps 690 mmHg 46%
    11:00 +13°C° 0 mm 2 mps 690 mmHg 42%
    12:00 +15°C° 0 mm 2 mps 689 mmHg 38%
    13:00 +15°C° 0 mm 2 mps 689 mmHg 38%
    14:00 +15°C° 0 mm 2 mps 688 mmHg 39%
    15:00 +13°C° 0 mm 3 mps 688 mmHg 40%
    16:00 +13°C° 0 mm 2 mps 687 mmHg 44%
    17:00 +10°C° 0 mm 2 mps 687 mmHg 49%
    18:00 +9°C° 0 mm 2 mps 687 mmHg 54%
    19:00 +8°C° 0 mm 2 mps 687 mmHg 54%
    20:00 +8°C° 0 mm 2 mps 687 mmHg 54%
    21:00 +8°C° 0 mm 2 mps 687 mmHg 54%
    22:00 +8°C° 0 mm 2 mps 687 mmHg 54%
    23:00 +7°C° 0 mm 2 mps 687 mmHg 54%

    Tomorrow, 13 December, Thursday

    Time Temperature Precipitation Wind Pressure Humidity
    00:00 +7°C° 0 mm 2 mps 687 mmHg 54%
    01:00 +7°C° 0 mm 2 mps 687 mmHg 54%
    02:00 +7°C° 0 mm 2 mps 687 mmHg 54%
    03:00 +7°C° 0 mm 2 mps 687 mmHg 55%
    04:00 +7°C° 0 mm 2 mps 687 mmHg 55%
    05:00 +7°C° 0 mm 2 mps 687 mmHg 56%
    06:00 +6°C° 0 mm 2 mps 687 mmHg 57%
    07:00 +7°C° 0.1 mm 2 mps 687 mmHg 56%
    08:00 +8°C° 0.1 mm 2 mps 688 mmHg 55%
    09:00 +9°C° 0.1 mm 2 mps 688 mmHg 54%
    10:00 +10°C° 0.1 mm 2 mps 688 mmHg 52%
    11:00 +10°C° 0.1 mm 2 mps 689 mmHg 50%
    12:00 +12°C° 0.1 mm 2 mps 689 mmHg 48%
    13:00 +11°C° 0 mm 3 mps 689 mmHg 48%
    14:00 +11°C° 0 mm 3 mps 690 mmHg 49%
    15:00 +10°C° 0 mm 3 mps 690 mmHg 49%
    16:00 +9°C° 0 mm 3 mps 691 mmHg 55%
    17:00 +7°C° 0 mm 2 mps 691 mmHg 62%
    18:00 +7°C° 0 mm 1 mps 692 mmHg 68%
    19:00 +7°C° 0 mm 1 mps 693 mmHg 69%
    20:00 +6°C° 0 mm 1 mps 693 mmHg 70%
    21:00 +6°C° 0 mm 1 mps 694 mmHg 70%
    22:00 +6°C° 0 mm 1 mps 694 mmHg 71%
    23:00 +5°C° 0 mm 1 mps 694 mmHg 72%

    Day after tomorrow, 14 December, Friday

    Time Temperature Precipitation Wind Pressure Humidity
    00:00 +5°C° 0 mm 1 mps 695 mmHg 72%
    01:00 +5°C° 0 mm 1 mps 695 mmHg 73%
    02:00 +5°C° 0 mm 1 mps 695 mmHg 74%
    03:00 +4°C° 0 mm 1 mps 696 mmHg 74%
    04:00 +4°C° 0 mm 1 mps 696 mmHg 74%
    05:00 +4°C° 0 mm 1 mps 696 mmHg 75%
    06:00 +4°C° 0 mm 1 mps 696 mmHg 75%
    07:00 +4°C° 0 mm 1 mps 697 mmHg 71%
    08:00 +5°C° 0 mm 1 mps 697 mmHg 67%
    09:00 +6°C° 0 mm 1 mps 698 mmHg 63%
    10:00 +5°C° 0 mm 2 mps 697 mmHg 58%
    11:00 +6°C° 0 mm 2 mps 697 mmHg 53%
    12:00 +7°C° 0 mm 3 mps 697 mmHg 47%
    13:00 +7°C° 0 mm 2 mps 697 mmHg 47%
    14:00 +6°C° 0 mm 2 mps 696 mmHg 47%
    15:00 +6°C° 0 mm 2 mps 696 mmHg 47%
    16:00 +5°C° 0 mm 2 mps 696 mmHg 50%
    17:00 +5°C° 0 mm 1 mps 697 mmHg 53%
    18:00 +5°C° 0 mm 1 mps 697 mmHg 56%
    19:00 +4°C° 0 mm 1 mps 697 mmHg 57%
    20:00 +4°C° 0 mm 1 mps 697 mmHg 57%
    21:00 +4°C° 0 mm 1 mps 697 mmHg 58%
    22:00 +3°C° 0 mm 1 mps 697 mmHg 59%
    23:00 +3°C° 0 mm 1 mps 697 mmHg 59%

    15 December, Saturday

    Time Temperature Precipitation Wind Pressure Humidity
    00:00 +3°C° 0 mm 1 mps 697 mmHg 59%
    01:00 +3°C° 0 mm 1 mps 697 mmHg 58%
    02:00 +3°C° 0 mm 1 mps 697 mmHg 58%
    03:00 +2°C° 0 mm 1 mps 697 mmHg 58%
    04:00 +2°C° 0 mm 1 mps 697 mmHg 58%
    05:00 +2°C° 0 mm 1 mps 697 mmHg 57%
    06:00 +2°C° 0 mm 1 mps 697 mmHg 57%
    07:00 +3°C° 0 mm 1 mps 698 mmHg 54%
    08:00 +4°C° 0 mm 1 mps 698 mmHg 51%
    09:00 +5°C° 0 mm 1 mps 699 mmHg 48%
    10:00 +5°C° 0 mm 2 mps 699 mmHg 46%
    11:00 +6°C° 0 mm 2 mps 698 mmHg 44%
    12:00 +6°C° 0 mm 2 mps 698 mmHg 42%
    13:00 +6°C° 0 mm 2 mps 698 mmHg 44%
    14:00 +6°C° 0 mm 2 mps 698 mmHg 45%
    15:00 +6°C° 0 mm 2 mps 698 mmHg 46%
    16:00 +5°C° 0 mm 2 mps 698 mmHg 51%
    17:00 +5°C° 0 mm 1 mps 698 mmHg 55%
    18:00 +3°C° 0 mm 1 mps 699 mmHg 59%
    19:00 +3°C° 0 mm 1 mps 699 mmHg 59%
    20:00 +3°C° 0 mm 1 mps 699 mmHg 59%
    21:00 +3°C° 0 mm 1 mps 699 mmHg 58%
    22:00 +3°C° 0 mm 1 mps 699 mmHg 58%
    23:00 +3°C° 0 mm 1 mps 699 mmHg 58%

    16 December, Sunday

    Time Temperature Precipitation Wind Pressure Humidity
    00:00 +3°C° 0 mm 1 mps 699 mmHg 57%
    01:00 +2°C° 0 mm 1 mps 699 mmHg 57%
    02:00 +2°C° 0 mm 1 mps 698 mmHg 57%
    03:00 +2°C° 0 mm 1 mps 698 mmHg 57%
    04:00 +2°C° 0 mm 1 mps 698 mmHg 56%
    05:00 +2°C° 0 mm 1 mps 698 mmHg 56%
    06:00 +2°C° 0 mm 1 mps 698 mmHg 55%
    07:00 +3°C° 0 mm 1 mps 698 mmHg 52%
    08:00 +4°C° 0 mm 1 mps 698 mmHg 49%
    09:00 +5°C° 0 mm 1 mps 698 mmHg 46%
    10:00 +6°C° 0 mm 1 mps 698 mmHg 44%
    11:00 +6°C° 0 mm 2 mps 698 mmHg 42%
    12:00 +7°C° 0 mm 2 mps 697 mmHg 41%
    13:00 +7°C° 0 mm 2 mps 697 mmHg 42%
    14:00 +7°C° 0 mm 2 mps 697 mmHg 43%
    15:00 +7°C° 0 mm 2 mps 696 mmHg 44%
    16:00 +7°C° 0 mm 1 mps 696 mmHg 48%
    17:00 +5°C° 0 mm 1 mps 697 mmHg 51%
    18:00 +4°C° 0 mm 1 mps 697 mmHg 55%
    19:00 +4°C° 0 mm 1 mps 697 mmHg 55%
    20:00 +4°C° 0 mm 1 mps 697 mmHg 55%
    21:00 +4°C° 0 mm 1 mps 697 mmHg 55%
    22:00 +4°C° 0 mm 1 mps 697 mmHg 55%
    23:00 +4°C° 0 mm 1 mps 697 mmHg 55%

    17 December, Monday

    Time Temperature Precipitation Wind Pressure Humidity
    00:00 +4°C° 0 mm 1 mps 697 mmHg 56%
    01:00 +3°C° 0 mm 1 mps 697 mmHg 56%
    02:00 +3°C° 0 mm 1 mps 697 mmHg 56%
    03:00 +3°C° 0 mm 1 mps 697 mmHg 57%
    04:00 +3°C° 0 mm 1 mps 697 mmHg 57%
    05:00 +3°C° 0 mm 1 mps 697 mmHg 58%
    06:00 +3°C° 0 mm 1 mps 697 mmHg 58%
    07:00 +3°C° 0 mm 1 mps 697 mmHg 61%
    08:00 +4°C° 0 mm 1 mps 698 mmHg 64%
    09:00 +3°C° 0 mm 2 mps 698 mmHg 67%
    10:00 +4°C° 0 mm 2 mps 698 mmHg 69%
    11:00 +4°C° 0 mm 2 mps 697 mmHg 70%
    12:00 +5°C° 0 mm 2 mps 697 mmHg 72%
    13:00 +5°C° 0 mm 2 mps 697 mmHg 74%
    14:00 +4°C° 0 mm 2 mps 696 mmHg 76%
    15:00 +4°C° 0 mm 2 mps 696 mmHg 77%
    16:00 +4°C° 0.2 mm 2 mps 696 mmHg 80%
    17:00 +4°C° 0.2 mm 1 mps 697 mmHg 83%
    18:00 +4°C° 0.2 mm 1 mps 697 mmHg 85%
    19:00 +4°C° 0.5 mm 1 mps 697 mmHg 85%
    20:00 +4°C° 0.5 mm 1 mps 697 mmHg 86%
    21:00 +4°C° 0.5 mm 1 mps 697 mmHg 86%
    22:00 +4°C° 0.3 mm 1 mps 697 mmHg 87%
    23:00 +4°C° 0.3 mm 1 mps 697 mmHg 88%
    Show more